RH
99 96 78 71 54 56 57 14 9 11 13 15 15 15 16 17 17 17 17 17 19 20 20 23 32 27 29 25 18 19 16 15 15 16 18 20 26 34 39 37 35 34 30
95 96 92 70 64 37 30 32 10 10 12 14 16 16 15 16 16 15 16 17 19 21 23 24 25 28 36 28 24 19 18 16 16 19 21 25 29 42 43 41 39 36 31
96 92 94 94 74 54 28 14 11 12 13 15 15 14 13 12 14 18 20 22 24 24 24 24 29 33 39 34 25 26 20 17 19 23 33 33 37 44 50 47 40 36 30
86 92 94 95 88 49 27 14 10 12 13 15 15 15 16 17 21 25 26 26 28 27 26 29 33 36 39 36 36 25 21 20 24 32 31 32 40 48 50 47 39 35 30
85 83 91 74 84 83 34 17 12 11 12 14 15 19 20 23 25 30 34 33 34 34 35 35 34 37 40 39 39 28 26 23 30 30 34 44 51 49 42 35 35 35 29
90 88 81 68 72 88 34 16 12 11 15 18 23 25 27 32 32 35 35 36 32 31 32 32 35 38 38 44 53 50 34 36 30 32 47 52 49 46 32 29 29 32 30
60 59 72 75 70 64 34 15 13 15 21 26 28 33 36 34 32 35 33 34 34 36 36 36 40 39 42 50 58 39 34 31 27 35 56 54 49 42 32 27 24 22 24
54 32 37 73 73 61 26 17 18 24 28 31 36 38 36 34 40 37 35 36 35 37 36 35 37 39 45 52 51 43 36 31 28 40 56 53 50 43 34 29 27 23 20
36 32 25 26 50 26 19 17 21 26 32 36 38 35 36 32 35 38 37 35 34 35 35 35 40 43 44 53 49 45 40 30 28 46 55 60 57 49 36 36 34 27 20
48 36 29 37 24 19 19 20 24 24 32 37 36 33 29 27 33 36 34 35 36 36 35 38 45 50 50 57 57 50 45 30 33 61 66 67 64 49 42 45 37 30 28
52 45 40 47 33 20 21 23 26 29 31 37 36 30 26 26 29 34 34 36 37 36 39 44 51 54 57 58 58 57 47 30 46 65 73 70 67 53 52 46 36 38 43
40 52 46 38 33 29 30 33 32 33 34 41 40 35 31 30 30 32 35 36 38 38 44 48 54 62 63 62 65 66 41 31 46 60 63 64 73 56 55 42 45 52 49
36 36 43 50 39 35 36 36 38 40 43 45 43 40 37 35 34 34 32 36 40 46 51 52 60 67 67 73 73 51 38 34 43 53 56 79 66 62 50 46 56 56 46
51 42 37 45 50 44 36 35 36 38 42 42 42 41 39 39 38 40 38 39 49 56 56 58 64 72 77 80 62 42 36 35 40 52 84 76 66 59 50 58 59 49 40
66 52 38 36 42 49 50 47 38 35 34 35 37 38 38 38 40 43 45 53 61 61 60 65 75 84 88 70 43 43 44 48 60 86 79 70 67 55 56 60 55 43 40
74 64 64 56 46 47 47 53 56 54 50 43 41 41 42 45 48 53 60 67 65 66 72 81 90 94 77 54 57 51 55 63 85 80 75 74 63 58 64 61 47 42 38
81 81 80 71 56 55 57 61 62 60 55 54 56 56 55 54 55 62 69 70 71 78 84 89 92 86 69 67 62 67 76 85 88 84 80 72 62 70 67 53 44 44 36
61 55 53 52 52 50 69 64 62 58 55 56 62 63 65 65 65 64 63 62 68 74 82 87 92 86 83 87 94 91 95 96 93 87 82 70 78 78 62 46 42 38 32
59 78 71 59 54 56 51 52 50 49 50 49 49 54 55 49 48 49 55 58 64 78 97 96 95 95 98 97 95 98 98 97 94 91 76 80 84 66 49 40 33 30 27
51 70 80 71 60 62 56 56 55 50 47 50 48 49 48 46 48 51 57 71 88 100 99 98 98 98 98 95 95 98 99 94 93 86 87 83 73 47 38 28 24 22 24
61 54 60 64 66 61 62 59 62 58 57 56 56 54 49 46 51 59 69 86 100 100 98 99 99 98 97 96 97 98 96 97 93 94 95 84 53 39 28 25 22 21 18
74 59 50 44 42 39 40 38 34 60 62 59 56 53 58 64 75 90 100 100 100 100 100 99 98 99 98 100 98 95 99 99 99 98 96 85 62 32 28 28 25 19 16
100 73 55 46 56 87 70 53 43 37 51 66 63 61 64 73 86 96 100 100 100 100 99 99 99 100 100 100 100 98 100 100 100 98 97 92 54 33 33 30 26 23 14
100 100 86 79 81 100 100 100 100 77 69 63 66 77 92 100 100 100 100 100 100 100 99 98 97 100 100 100 100 99 98 97 95 92 92 83 55 50 39 34 28 20 14
87 98 100 94 96 100 100 100 100 100 100 100 100 100 100 100 100 100 100 100 100 99 99 99 100 100 100 98 93 95 94 95 92 92 88 77 69 65 47 38 30 22 15
100 100 97 96 100 100 100 100 100 100 97 100 100 100 100 100 100 99 100 100 100 100 100 100 100 99 93 92 97 98 98 100 95 87 78 72 74 60 50 42 34 24 21
Wind_Speed
35 48 49 44 40 40 41 38 40 38 35 34 31 32 33 33 33 34 34 34 34 32 30 30 31 34 32 33 34 34 34 34 34 35 36 38 41 43 44 45 45 46 48
38 41 48 47 43 40 41 41 38 36 34 35 35 36 37 37 35 36 35 34 32 30 32 32 34 34 34 37 35 35 35 35 34 36 38 39 42 45 47 47 47 48 51
40 42 46 44 42 41 41 41 38 38 37 37 39 38 37 36 35 33 31 33 34 33 35 32 33 35 38 39 36 36 36 36 35 37 39 41 43 45 48 48 49 52 54
42 45 46 49 44 41 44 43 41 39 40 41 41 39 36 38 36 36 36 36 34 33 33 33 35 37 40 40 38 38 38 37 37 39 42 44 46 47 46 47 51 53 57
49 50 48 44 43 45 46 44 42 42 44 45 43 41 39 38 37 35 35 35 33 33 35 36 38 39 41 40 39 38 39 39 40 41 44 47 48 48 50 50 53 54 58
49 51 50 47 46 48 48 48 46 46 47 45 43 40 38 36 34 37 36 34 34 35 37 37 39 40 41 40 40 42 43 41 42 44 48 47 48 52 55 55 56 56 57
49 49 53 51 47 45 48 49 47 47 45 43 42 39 37 36 35 38 36 33 34 37 39 41 40 41 43 43 44 46 45 44 45 47 49 49 52 57 59 60 61 61 60
51 53 52 52 49 48 52 50 49 48 45 43 41 39 40 38 39 39 37 35 39 41 43 43 42 42 46 45 47 47 47 46 47 49 50 52 55 60 62 64 66 66 66
54 56 54 50 51 51 50 48 48 48 46 45 45 44 43 42 41 39 38 39 41 43 45 43 42 45 48 48 48 49 49 49 50 52 53 55 59 62 64 67 69 71 71
53 53 54 52 53 52 50 50 49 48 48 47 47 46 45 43 42 41 41 42 42 44 44 44 45 47 50 50 50 51 50 52 52 54 54 57 61 64 66 67 69 71 73
53 56 56 56 54 53 52 51 50 50 49 48 47 46 46 44 43 44 44 44 42 43 43 46 47 49 51 52 53 53 52 53 54 55 57 60 63 65 67 68 70 69 68
53 54 52 55 54 56 55 51 53 52 51 50 50 50 49 46 46 46 47 45 44 45 46 48 49 50 52 53 53 54 53 54 56 58 60 63 64 66 67 68 68 64 62
57 52 50 54 55 57 56 54 55 55 54 53 53 53 52 50 49 50 50 49 47 47 50 51 51 53 53 52 53 53 53 55 58 61 63 63 64 65 67 69 64 61 60
42 54 55 51 53 56 56 54 55 56 55 54 54 53 53 53 54 54 54 51 50 51 52 52 52 52 52 53 52 52 53 56 59 62 62 63 64 64 65 62 59 59 58
33 42 49 54 55 56 54 55 55 55 55 55 54 55 55 54 55 56 55 53 52 53 52 52 52 52 53 52 51 52 54 56 58 61 62 64 63 64 62 59 57 57 57
48 44 48 40 43 50 52 52 53 55 56 55 55 54 54 54 55 56 55 53 52 52 51 51 52 53 52 51 52 52 53 56 59 62 64 63 64 60 59 57 57 57 58
54 54 55 53 51 50 50 51 50 50 51 51 53 56 57 57 56 55 52 52 52 51 52 53 54 52 51 51 50 52 55 58 61 62 62 62 61 57 56 55 55 57 59
53 53 51 48 47 54 56 51 50 48 48 49 51 52 53 54 55 54 53 52 53 54 54 54 52 50 49 50 52 53 55 58 60 60 61 60 55 54 53 52 53 55 58
56 50 48 49 49 55 60 60 57 53 50 52 54 54 54 53 53 54 54 55 55 55 54 51 48 48 50 51 51 53 55 58 58 59 59 55 52 50 49 50 53 54 55
63 59 54 51 50 54 54 56 56 54 52 53 57 56 55 55 55 57 58 56 55 52 50 48 49 50 49 49 50 53 57 57 58 59 56 52 47 45 49 51 51 52 54
63 65 68 66 59 53 49 44 50 51 52 52 56 59 59 59 58 56 56 55 54 51 50 50 51 49 48 50 53 54 55 57 58 55 50 44 41 46 48 49 50 50 50
52 62 64 66 65 63 55 53 46 45 49 51 52 52 52 53 54 54 54 55 53 52 49 50 49 48 51 51 52 54 57 56 54 49 44 40 41 46 47 49 49 49 52
45 54 60 62 60 56 57 54 52 49 48 48 49 52 53 55 56 57 57 56 56 54 52 48 49 50 49 50 53 55 55 51 48 44 44 42 41 45 49 50 49 52 55
40 46 53 58 60 58 56 56 56 55 54 53 53 54 52 52 53 55 59 60 59 52 47 47 48 49 49 50 51 52 48 48 46 45 45 39 42 48 51 52 52 57 59
32 36 41 49 57 57 59 59 60 58 57 57 54 53 55 55 56 57 54 52 49 46 48 47 45 44 46 46 46 47 46 46 45 44 40 43 48 52 52 54 55 58 60
29 32 26 36 43 50 59 60 60 58 58 58 58 60 56 48 43 42 43 43 45 44 43 45 42 40 41 44 45 45 44 43 42 42 42 46 51 52 53 54 56 59 61
Wind_Direction
227 211 202 200 211 217 219 220 218 221 225 229 228 230 235 238 240 244 249 254 257 267 275 275 279 289 292 285 281 280 280 281 282 286 290 293 297 301 302 301 302 302 301
229 216 214 207 206 221 221 227 224 224 226 229 228 230 235 238 241 246 252 259 262 266 268 272 280 288 287 283 283 280 281 281 282 286 290 293 297 301 302 302 303 302 301
227 222 218 216 210 218 226 230 228 226 227 231 232 234 240 246 248 252 255 256 256 262 269 274 279 284 284 283 283 282 281 281 283 287 290 294 296 300 302 302 303 303 302
224 228 224 219 220 225 232 231 230 225 227 231 234 237 239 240 240 242 246 255 263 267 268 272 277 280 281 282 285 283 282 283 285 287 291 295 298 298 299 301 302 303 303
221 226 223 227 231 228 233 233 231 227 228 232 233 233 234 237 243 248 252 257 263 266 268 270 274 277 278 280 282 282 283 282 285 289 294 297 298 299 300 302 304 306 307
222 227 227 227 229 228 229 231 229 228 229 232 234 233 234 239 245 250 253 257 262 266 269 272 273 274 275 277 279 278 280 283 287 291 294 295 296 298 300 302 304 308 311
229 228 228 228 232 232 230 231 231 231 231 233 235 235 236 241 244 249 255 260 265 266 268 269 273 274 274 275 275 278 279 282 284 289 294 295 296 299 302 304 305 307 311
228 232 230 229 230 229 228 227 230 230 231 232 233 236 239 240 244 249 256 261 264 266 269 270 273 273 273 273 276 279 279 281 282 288 292 293 296 299 302 304 305 307 309
232 235 235 230 232 230 228 228 230 231 231 231 232 235 238 242 245 250 255 262 266 268 269 271 273 273 272 275 277 277 279 280 281 286 292 292 295 298 302 304 307 308 309
226 231 233 231 231 228 229 229 229 231 232 234 234 236 239 242 246 250 257 261 265 268 271 272 272 272 272 275 276 276 280 279 281 287 290 291 295 299 302 306 310 311 312
221 226 230 230 229 229 230 230 230 230 232 234 237 239 243 244 248 252 257 262 265 267 269 270 270 270 271 273 276 278 278 277 281 287 289 292 296 300 304 309 311 312 311
225 223 227 231 231 232 231 232 233 233 233 234 236 239 243 246 249 252 257 261 262 264 267 268 269 270 270 272 274 278 276 276 280 285 289 293 298 301 307 311 311 311 311
232 226 226 227 230 231 233 234 234 235 234 235 237 241 245 247 249 252 256 259 261 264 267 268 267 267 270 273 276 275 274 277 281 285 290 294 299 305 309 310 310 311 311
238 235 226 225 228 232 234 235 236 236 238 238 240 243 246 248 249 252 255 258 260 263 265 265 267 268 271 275 275 274 276 279 282 286 291 296 301 307 310 310 311 313 310
221 223 228 228 227 227 229 233 236 237 239 241 242 243 244 246 248 251 255 258 261 262 263 265 266 268 272 273 272 274 278 280 282 287 293 298 304 309 309 309 312 309 309
216 216 208 212 226 225 226 228 232 234 236 239 242 243 245 246 248 252 255 258 258 261 261 262 265 270 270 271 274 276 277 280 285 290 294 301 306 307 309 310 310 310 310
210 211 216 227 230 229 228 226 227 231 233 235 239 241 244 247 249 251 253 256 258 258 259 263 267 267 270 274 275 276 278 281 285 291 298 304 307 307 309 311 309 309 313
234 234 234 235 231 230 229 227 229 234 238 239 239 241 244 247 249 250 252 255 256 258 262 265 266 269 271 272 274 275 278 282 287 295 301 304 304 307 310 309 306 309 313
228 228 230 227 225 227 229 234 237 234 238 243 243 244 244 245 248 250 252 253 256 259 260 261 265 268 268 270 273 277 280 285 292 298 300 302 305 307 308 306 308 311 311
224 223 224 224 221 215 233 236 238 241 240 241 243 243 245 247 248 250 252 254 255 256 258 261 264 268 271 274 276 278 283 291 296 299 299 300 304 305 307 308 311 311 312
226 223 224 227 227 230 233 240 236 238 240 241 241 244 249 249 248 251 253 253 253 254 258 262 267 271 274 275 278 284 290 293 296 296 296 301 303 308 309 310 311 313 315
228 227 229 231 232 234 235 241 241 239 241 242 243 245 248 249 249 250 250 250 251 253 258 263 269 273 275 278 283 288 292 292 292 291 293 296 306 307 309 311 312 315 317
229 227 228 230 230 229 232 233 234 236 238 243 245 247 249 251 251 251 252 253 253 257 259 264 271 275 277 281 286 289 288 288 286 286 290 293 303 308 310 311 311 314 317
223 230 231 230 230 222 225 231 234 233 235 238 244 247 251 256 258 259 259 256 255 256 260 267 272 273 279 284 283 283 283 283 283 286 290 297 301 307 308 308 308 312 316
239 239 226 231 233 231 227 229 235 241 241 244 246 246 251 252 254 255 255 255 257 258 264 268 270 274 275 277 279 281 281 280 282 286 291 295 301 305 304 305 308 311 314
217 229 236 236 231 231 231 230 232 237 243 240 238 241 246 249 256 258 257 253 252 252 252 259 264 270 275 279 278 277 276 276 284 289 293 297 300 301 301 302 306 310 316